Regional Weather Roundup
Issued by NWS Upton, NY

Current Version | Previous Version | Graphics & Text | Print | Product List | Glossary Off
Versions: 1 2 3 4 5 6 7 8 9 10 11 12 13 14 15 16 17 18 19 20 21 22 23 24 25 26

000
ASUS41 KOKX 171005
RWROKX
REGIONAL WEATHER ROUNDUP
NATIONAL WEATHER SERVICE NEW YORK NY
600 AM EDT THU APR 17 2014

NOTE: "FAIR" INDICATES FEW OR NO CLOUDS BELOW 12,000 FEET WITH NO
SIGNIFICANT WEATHER AND/OR OBSTRUCTIONS TO VISIBILITY.

NYZ071-072-176-178-NJZ106-104-171100-
NEW YORK CITY METRO AREA


CITY           SKY/WX    TMP DP  RH WIND       PRES   REMARKS
CENTRAL PARK   CLEAR     36  20  52 E9G17     30.66R WCI  29
LAGUARDIA APRT PTCLDY    37  22  54 NE17      30.64R WCI  27
KENNEDY INTL   PTCLDY    36  23  59 NE10      30.65R WCI  28
NEWARK/LIBERTY PTCLDY    35  22  58 N10       30.64R WCI  27
TETERBORO      CLEAR     37  18  46 NE6       30.64R WCI  32
$$

NYZ177-179-078>081-171100-
LONG ISLAND NEW YORK

CITY           SKY/WX    TMP DP  RH WIND       PRES   REMARKS
FARMINGDALE    CLEAR     34  22  61 NE8       30.64R WCI  27
ISLIP          MOCLDY    33  21  61 NE9       30.63R WCI  25
SHIRLEY        CLEAR     34  16  47 VRB6      30.66R WCI  29
WESTHAMPTON    CLEAR     35  19  52 NE12      30.66R WCI  27
MONTAUK POINT    N/A     36  23  59 NE12G20   30.67R WCI  28
$$

NYZ052-065-067-171100-
HUDSON VALLEY

CITY           SKY/WX    TMP DP  RH WIND       PRES   REMARKS
WHITE PLAINS   CLEAR     32  17  54 NE7       30.63S WCI  26
NEWBURGH       CLEAR     30  19  64 NE9       30.66  WCI  22
MONTGOMERY     CLEAR     27  18  69 N7        30.65S WCI  19
POUGHKEEPSIE   CLEAR     27  20  75 CALM      30.67R
ALBANY         PTCLDY    26  18  71 CALM      30.70R
$$

NJZ001-105-106-008-010-013-015-019>022-104-171100-
NEW JERSEY

CITY           SKY/WX    TMP DP  RH WIND       PRES   REMARKS
NEWARK/LIBERTY PTCLDY    35  22  58 N10       30.64R WCI  27
TETERBORO      CLEAR     37  18  46 NE6       30.64R WCI  32
CALDWELL       CLEAR     33  18  53 CALM      30.65R
MORRISTOWN     CLEAR     32  19  59 N3        30.64R
SOMERVILLE     CLEAR     34  17  50 N6        30.62R WCI  29
LINDEN         FAIR      38  22  52 NE6       30.65R WCI  33
SUSSEX           N/A     32  17  54 NE7       30.63R WCI  26
ANDOVER          N/A     29  20  69 NE7       30.62S WCI  22
TRENTON        CLEAR     33  18  53 NE8       30.61R WCI  26
MILLVILLE      CLEAR     34  26  72 NE8       30.60R WCI  27
ATLANTIC CITY  PTCLDY    29  25  85 NE3       30.59R
WRIGHTSTOWN    CLEAR     30  22  70 NE6       30.59R WCI  24
TOMS RIVER     PTCLDY    36  30  80 E5        30.61R WCI  32
BELMAR         PTCLDY    37  25  60 NE12G18   30.61R WCI  30
$$

PAZ047>061-062-071-171100-
EASTERN PENNSYLVANIA

CITY           SKY/WX    TMP DP  RH WIND       PRES   REMARKS
PHILADELPHIA   PTCLDY    37  19  48 NE8       30.62R WCI  31
ALLENTOWN      CLEAR     30  18  60 E9        30.61R WCI  22
SCRANTON       CLEAR     29  18  63 NE3       30.57S
$$

CTZ002-004>006-009-010-012-RIZ004-006-007-MAZ004-011-015-171100-
SOUTHERN NEW ENGLAND
 IN CT

CITY           SKY/WX    TMP DP  RH WIND       PRES   REMARKS
BRADLEY INTL   PTCLDY    27  19  72 N6        30.70R WCI  20
HARTFORD       CLEAR     31  18  58 N9        30.71R WCI  23
DANBURY        CLEAR     29  19  66 NE7       30.67R WCI  22
WTRBRY/OXFORD  PTCLDY    28  16  59 E12       30.67R WCI  18
BRIDGEPORT     CLEAR     33  21  61 NE8       30.67S WCI  26
MERIDEN        CLEAR     30  19  63 N6        30.70R WCI  24
NEW HAVEN      PTCLDY    31  18  58 N9        30.67S WCI  23
CHESTER        FAIR      32  14  47 NE7       30.67R WCI  26
GROTON         CLEAR     32  18  56 NE12      30.68R WCI  23
WILLIMANTIC    CLEAR     29  17  61 N5        30.70R WCI  24

 IN RI

CITY           SKY/WX    TMP DP  RH WIND       PRES   REMARKS
PROVIDENCE     PTCLDY    31  19  61 NE13      30.70R WCI  21
BLOCK ISLAND   CLEAR     36  23  60 NE16G24   30.64S WCI  26
WESTERLY       CLEAR     31  18  58 N7        30.68R WCI  24

 IN MA

CITY           SKY/WX    TMP DP  RH WIND       PRES   REMARKS
BOSTON         PTCLDY    32  20  61 NE14      30.73R WCI  22
WORCESTER      CLEAR     24  14  65 NE7       30.67R WCI  16
WESTFIELD      CLEAR     26  18  71 N8        30.71R WCI  18
PROVINCETOWN   PTCLDY    34  23  64 MISG      30.71R
NANTUCKET      PTCLDY    35  23  61 NE21G31   30.63S WCI  24
$$

ANZ330-335-338-340-345-350-353-355-171100-
COASTAL MARINE OBSERVATIONS


STATION/POSITION TIME  SKY/WX   TEMP    WIND        PRES    VSBY  WAVE
                                AIR SEA DIR/SP/G                  HT/PER
                 (UTC)          (F)     (DEG/KT/KT) (MB)    (MI)  (FT/S)
NY HARB ENTRANCE 1000            40 42   50/ 19/ 23 1036.4
4S FIRE IS       0900               43                N/A           4/11
23SW MTP         1000            38 41   40/ 21/ 25 1036.6          6/ 6
HUDSON CANYON    0900            40 44   40/ 21/ 25 1034.4          7/10
EXECUTION ROCKS  1000            37 42   50/ 17/ 21   N/A
WESTERN LI SOUND 1000            36      60/ 17/ 19   N/A           1/ 3
CENTRAL LI SOUND 0900            36 41   50/ 17/ 19   N/A           2/ 4
EASTERN LI SOUND NOT AVBL
ROBBINS REEF     1000            38      60/ 17/ 21   N/A
$$


>>>>>>>>>>>>>>>>>>>>>>>>>>>> KEY <<<<<<<<<<<<<<<<<<<<<<<<<<<
>                                                          <
>     SKY/WX - SKY CONDITION/PRESENT WEATHER               <
>     TMP    - TEMPERATURE IN FAHRENHEIT                   <
>     DP     - DEWPOINT IN FAHRENHEIT                      <
>     RH     - RELATIVE HUMIDITY IN PERCENT                <
>     WIND   - DIRECTION AND SPEED IN MPH                  <
>     PRES   - MEAN SEA LEVEL PRESSURE IN INCHES OF HG     <
>     WCI    - WIND CHILL INDEX                            <
>     VSB    - VISIBILITY IN MILES                         <
>     HX     - HEAT INDEX                                  <
>     TC     - TEMPERATURE IN CELSIUS                      <
>     VRB    - VARIABLE WIND DIRECTION                     <
>                                                          <
>>>>>>>>>>>>>>>>>>>>>>>>>>>> KEY <<<<<<<<<<<<<<<<<<<<<<<<<<<





USA.gov is the U.S. government's official web portal to all federal, state and local government web resources and services.